Погода в Липицах

Россия / Тульская область     53°22′02″N   37°16′31″E
темп.,
°C
ветер,
м/с
пор.,
м/с
влажн.,
%
обл.,
%
осадки,
мм/ч
давл.,
гПа
погр.,
м
21 апреля, ср
ср2100:00+2св5897100 0.1 1007407
03:00+2с3599100 0.9 1005207
06:00+2сз3499100 0.1 1005212
09:00+2з3596100 0.1 1007485
12:00+4з5787100 0.1 1009782
15:00+5зюз5777100 0.1 10101002
18:00+5зюз3680100 0.0 1012417
21:00+4ююз3686100 0.0 1014206
22 апреля, чт
чт2200:00+4юз2591100 0.1 1015284
03:00+3ююз499475 0.1 1016273
06:00+3ююз4109513 0.0 1017276
09:00+7ююз698175 0.0 1018514
12:00+8ююз51082100 1.0 1018654
15:00+10ююз6107529 1.0 1018863
18:00+11ююз61072100 0.6 1017508
21:00+9ю5138297 1.6 1018378
23 апреля, пт
пт2300:00+9ю5138079 0.0 1017281
03:00+7ю5138240 0.0 1017270
06:00+8ю5138284 0.0 1017290
09:00+12ю712685 0.1 1017698
12:00+15ю9115011 0.1 10152064
15:00+15ю61052100 0.2 10141772
18:00+13ю7126299 0.3 1013749
21:00+10ююв51279100 1.5 1012361
24 апреля, сб
сб2400:00+9ююв6128773 0.7 1010479
03:00+8ю81488100 0.9 1008662
06:00+8ююв81392100 1.3 1007951
09:00+2зсз81397100 3.4 1007447
12:00+3зсз7119487 1.6 1009835
15:00+7зсз695880 1.9 10091818
18:00+6з6964100 0.6 1010873
21:00+4зюз4118148 0.9 1011335
25 апреля, вс
вс2500:00+2зюз510865 0.0 1011299
03:00+1зюз511885 0.0 1012323
06:000зюз511905 0.0 1012400
09:00+4зюз697218 0.0 10121045
12:00+6зюз795899 0.5 10121690
15:00+7зюз81055100 1.5 10121894
18:00+7зюз595582 0.3 10121541
21:00+3юз510685 0.4 1013309